This demonstration page uses our WeatherBlox Daily Observations layout. Learn more.

Left ArrowRight Arrow

36.17497, -115.13722

Hourly Observations for July 6, 2021

Temp ( °F °C ) Dew Point ( °F °C ) Humidity (%) Winds ( mph kmh ) Pressure ( in mb ) Visibility ( mi km ) Precip ( " mm )
12:53 am 00:53 Clear 93 33.9 36 2.2 13 13 N 5 7 29.75 1008 10 16 0.00 0.00
1:53 am 01:53 Clear 93 33.9 39 3.9 15 15 SSW 7 11 29.76 1008 10 16 0.00 0.00
2:53 am 02:53 Clear 89 31.7 38 3.3 16 16 NW 5 7 29.76 1008 10 16 0.00 0.00
3:53 am 03:53 Clear 88 31.1 42 5.6 20 20 Calm 29.77 1008 10 16 0.00 0.00
4:53 am 04:53 Clear 90 32.2 36 2.2 15 15 VRB 5 7 29.78 1009 10 16 0.00 0.00
5:53 am 05:53 Sunny 88 31.1 36 2.2 16 16 Calm 29.80 1009 10 16 0.00 0.00
6:53 am 06:53 Sunny 89 31.7 38 3.3 16 16 NNW 6 9 29.81 1010 10 16 0.00 0.00
7:53 am 07:53 Sunny 95 35 37 2.8 13 13 ENE 5 7 29.83 1010 10 16 0.00 0.00
8:53 am 08:53 Sunny 97 36.1 36 2.2 12 12 E 5 7 29.84 1010 10 16 0.00 0.00
9:53 am 09:53 Sunny 99 37.2 35 1.7 11 11 VRB 3 6 29.83 1010 10 16 0.00 0.00
10:53 am 10:53 Sunny 103 39.4 37 2.8 10 10 E 7 11 29.83 1010 10 16 0.00 0.00
11:53 am 11:53 Sunny 105 40.6 36 2.2 9 9 E 6 9 29.81 1010 10 16 0.00 0.00
12:53 pm 12:53 Sunny 108 42.2 35 1.7 8 8 VRB 6 9 29.78 1009 10 16 0.00 0.00
1:53 pm 13:53 Sunny 109 42.8 35 1.7 8 8 SSW 5 7 29.76 1008 10 16 0.00 0.00
2:53 pm 14:53 Sunny 110 43.3 35 1.7 8 8 WSW 7 11 29.73 1007 10 16 0.00 0.00
3:53 pm 15:53 Sunny 111 43.9 35 1.7 7 7 Calm 29.71 1006 10 16 0.00 0.00
4:53 pm 16:53 Sunny 111 43.9 35 1.7 7 7 W 6 9 29.68 1005 10 16 0.00 0.00
5:53 pm 17:53 Sunny 111 43.9 36 2.2 8 8 S 6 9 29.66 1005 10 16 0.00 0.00
6:53 pm 18:53 Sunny 111 43.9 36 2.2 8 8 S 6 9 29.65 1004 10 16 0.00 0.00
7:53 pm 19:53 Sunny 109 42.8 37 2.8 8 8 SSE 5 7 29.65 1004 10 16 0.00 0.00
9:53 pm 21:53 Clear 105 40.6 37 2.8 10 10 W 9 15 29.67 1005 10 16 0.00 0.00
10:53 pm 22:53 Clear 100 37.8 40 4.4 13 13 NNW 6 9 29.68 1005 10 16 0.00 0.00
11:53 pm 23:53 Clear 97 36.1 39 3.9 13 13 WNW 8 13 29.68 1005 10 16 0.00 0.00

Powered by AerisWeather